Starlink 35536

operational
NORAD ID: 66261 Int'l Des: 2025-245 Owner: SPXS Country: US Constellation: starlink
LEOCIRCULAR

关于 Starlink 35536

正在加载描述...

实时位置

正在加载3D地球...

即将过境

高度历史

Altitude vs Time

uPlot chart will show altitude changes over time

两行轨道根数

1 66261U 25245AD 25351.59015804 .00035424 00000-0 89086-3 0 9999
2 66261 53.1621 306.1594 0001289 94.0894 266.0258 15.39641219 8674
Epoch: Dec 17, 2025 • Age: 11 hours

当前状态

高度 449.8 km
速度 7.65 km/s
星下点 39.16°N, 124.98°W
发射日期 Oct 29, 2025
运行时间 0.1 years
类型 internet

技术详情

分类 Payload
质量 575.00 kg
干质量 530.00 kg
总质量 575.00 kg
长度 0.30 m
直径 4.10 m
跨度 29.00 m
形状 Box + pan
制造商 SPXS
平台类型 Starlink V2MO
阶段状态 In Orbit
所有者/国家 SPXS/US

大型星座

Loading constellations...